Capt. James Anderson — WDC3584 — position and weather

sailwx.info

Track history (hours):
 
Tides and Currents Weather Stations Pressure Air Temp Water Temp Dewpoint Dewpoint Depression Visibility Wind Speed Wind Dir Waves Ship Positions

Capt. James Anderson

Owner: AEP River Operations LLC, Chesterfield, MO. More information available from US FCC via Universal Licensing System and Coast Guard Vessel Documentation Center.

Last reported at 2015-Mar-27 20:17 UTC. Time now 2015-Mar-29 09:22 UTC.
Position N 38°56' W 082°07'.

Length 46 m; draft 3.5 m.

Type: Towing. MMSI: 367010580.

Date/timePositionNaut miles runAvg speedWind from/ knotsBaromVisibWave heightAir tempDewpointWater temp
2015-Mar-27 20:17N 38°56' W 082°07'0 0.0
2015-Mar-27 19:33N 38°56' W 082°07'0 0.0
2015-Mar-27 16:16N 38°56' W 082°07'5 5.9
2015-Mar-27 15:29N 38°59' W 082°04'5 4.6
2015-Mar-27 14:30N 38°56' W 082°07'0 0.0
2015-Mar-27 13:26N 38°56' W 082°07'0 0.0
2015-Mar-27 12:33N 38°56' W 082°07'0 0.0
2015-Mar-27 11:30N 38°56' W 082°07'0 0.0
2015-Mar-27 10:30N 38°56' W 082°07'0 0.0
2015-Mar-27 09:33N 38°56' W 082°07'0 0.0
2015-Mar-27 08:30N 38°56' W 082°07'1 0.6
2015-Mar-27 07:31N 38°56' W 082°07'0 0.0
2015-Mar-27 06:32N 38°56' W 082°07'0 0.0
2015-Mar-27 05:32N 38°56' W 082°07'0 0.0
2015-Mar-27 04:29N 38°56' W 082°07'0 0.0
2015-Mar-27 03:31N 38°56' W 082°07'0 0.0
2015-Mar-27 02:32N 38°56' W 082°07'0 0.0
2015-Mar-27 01:26N 38°56' W 082°07'0 0.0
2015-Mar-27 00:28N 38°56' W 082°07'0 0.0
2015-Mar-26 23:27N 38°56' W 082°07'0 0.0
2015-Mar-26 22:28N 38°56' W 082°07'0 0.0
2015-Mar-26 21:32N 38°56' W 082°07'0 0.0
2015-Mar-26 20:28N 38°56' W 082°07'0 0.0
2015-Mar-26 19:28N 38°56' W 082°07'0 0.0
2015-Mar-26 18:33N 38°56' W 082°07'1 0.9
2015-Mar-26 17:32N 38°57' W 082°06'0 0.2
2015-Mar-26 16:32N 38°57' W 082°06'5 5.0
2015-Mar-26 15:29N 38°52' W 082°08'2 1.8
2015-Mar-26 14:30N 38°50' W 082°08'4 4.4
2015-Mar-26 13:30N 38°55' W 082°08'3 2.6
2015-Mar-26 12:31N 38°57' W 082°06'6 5.9
2015-Mar-26 11:33N 39°01' W 082°02'5 4.6
2015-Mar-26 10:33N 38°60' W 081°57'7 3.0
2015-Mar-26 08:05N 38°52' W 081°54'0 0.0
2015-Mar-24 06:13N 38°52' W 081°54'7 2.3
2015-Mar-24 03:14N 38°59' W 081°56'3 3.1
2015-Mar-24 02:14N 39°01' W 081°59'3 3.4
2015-Mar-24 01:26N 39°00' W 082°03'5 5.4
2015-Mar-24 00:31N 38°56' W 082°07'6 6.0
2015-Mar-23 23:32N 38°51' W 082°09'5 4.5
2015-Mar-23 22:25N 38°56' W 082°07'5 5.7
2015-Mar-23 21:33N 38°51' W 082°09'0 0.0
2015-Mar-23 20:22N 38°51' W 082°09'0 0.0
2015-Mar-23 19:25N 38°51' W 082°09'0 0.0
2015-Mar-23 18:21N 38°51' W 082°09'3 3.3
2015-Mar-23 17:28N 38°54' W 082°09'3 1.5
2015-Mar-23 15:30N 38°51' W 082°09'5 4.1
2015-Mar-23 14:20N 38°55' W 082°07'6 6.5
2015-Mar-23 13:26N 39°00' W 082°03'3 3.5
2015-Mar-23 12:29N 38°60' W 081°58'  
Track history (hours):
 
Tides and Currents Weather Stations Pressure Air Temp Water Temp Dewpoint Dewpoint Depression Visibility Wind Speed Wind Dir Waves Ship Positions

Capt. James Anderson

Owner: AEP River Operations LLC, Chesterfield, MO. More information available from US FCC via Universal Licensing System and Coast Guard Vessel Documentation Center.

Last reported at 2015-Mar-27 20:17 UTC. Time now 2015-Mar-29 09:23 UTC.
Position N 38°56' W 082°07'.

Length 46 m; draft 3.5 m.

Type: Towing. MMSI: 367010580.

Date/timePositionNaut miles runAvg speedWind from/ knotsBaromVisibWave heightAir tempDewpointWater temp
2015-Mar-27 20:17N 38°56' W 082°07'0 0.0
2015-Mar-27 19:33N 38°56' W 082°07'0 0.0
2015-Mar-27 16:16N 38°56' W 082°07'5 5.9
2015-Mar-27 15:29N 38°59' W 082°04'5 4.6
2015-Mar-27 14:30N 38°56' W 082°07'0 0.0
2015-Mar-27 13:26N 38°56' W 082°07'0 0.0
2015-Mar-27 12:33N 38°56' W 082°07'0 0.0
2015-Mar-27 11:30N 38°56' W 082°07'0 0.0
2015-Mar-27 10:30N 38°56' W 082°07'0 0.0
2015-Mar-27 09:33N 38°56' W 082°07'0 0.0
2015-Mar-27 08:30N 38°56' W 082°07'1 0.6
2015-Mar-27 07:31N 38°56' W 082°07'0 0.0
2015-Mar-27 06:32N 38°56' W 082°07'0 0.0
2015-Mar-27 05:32N 38°56' W 082°07'0 0.0
2015-Mar-27 04:29N 38°56' W 082°07'0 0.0
2015-Mar-27 03:31N 38°56' W 082°07'0 0.0
2015-Mar-27 02:32N 38°56' W 082°07'0 0.0
2015-Mar-27 01:26N 38°56' W 082°07'0 0.0
2015-Mar-27 00:28N 38°56' W 082°07'0 0.0
2015-Mar-26 23:27N 38°56' W 082°07'0 0.0
2015-Mar-26 22:28N 38°56' W 082°07'0 0.0
2015-Mar-26 21:32N 38°56' W 082°07'0 0.0
2015-Mar-26 20:28N 38°56' W 082°07'0 0.0
2015-Mar-26 19:28N 38°56' W 082°07'0 0.0
2015-Mar-26 18:33N 38°56' W 082°07'1 0.9
2015-Mar-26 17:32N 38°57' W 082°06'0 0.2
2015-Mar-26 16:32N 38°57' W 082°06'5 5.0
2015-Mar-26 15:29N 38°52' W 082°08'2 1.8
2015-Mar-26 14:30N 38°50' W 082°08'4 4.4
2015-Mar-26 13:30N 38°55' W 082°08'3 2.6
2015-Mar-26 12:31N 38°57' W 082°06'6 5.9
2015-Mar-26 11:33N 39°01' W 082°02'5 4.6
2015-Mar-26 10:33N 38°60' W 081°57'7 3.0
2015-Mar-26 08:05N 38°52' W 081°54'0 0.0
2015-Mar-24 06:13N 38°52' W 081°54'7 2.3
2015-Mar-24 03:14N 38°59' W 081°56'3 3.1
2015-Mar-24 02:14N 39°01' W 081°59'3 3.4
2015-Mar-24 01:26N 39°00' W 082°03'5 5.4
2015-Mar-24 00:31N 38°56' W 082°07'6 6.0
2015-Mar-23 23:32N 38°51' W 082°09'5 4.5
2015-Mar-23 22:25N 38°56' W 082°07'5 5.7
2015-Mar-23 21:33N 38°51' W 082°09'0 0.0
2015-Mar-23 20:22N 38°51' W 082°09'0 0.0
2015-Mar-23 19:25N 38°51' W 082°09'0 0.0
2015-Mar-23 18:21N 38°51' W 082°09'3 3.3
2015-Mar-23 17:28N 38°54' W 082°09'3 1.5
2015-Mar-23 15:30N 38°51' W 082°09'5 4.1
2015-Mar-23 14:20N 38°55' W 082°07'6 6.5
2015-Mar-23 13:26N 39°00' W 082°03'3 3.5
2015-Mar-23 12:29N 38°60' W 081°58'  

Dump ship's entire track history